Weather History for PHTO - February, 2013

Change the Weather History Date:

Friday, February 15, 2013

  Actual Average Record
Temperature  
Mean Temperature 67 °F 71 °F  
Max Temperature 73 °F 79 °F 87 °F (1983)
Min Temperature 60 °F 63 °F 57 °F (1957)
Degree Days  
Heating Degree Days 0 0  
Month to date heating degree days 0 0  
Since 1 July heating degree days 0 0  
Cooling Degree Days 2 6  
Month to date cooling degree days 95 90  
Year to date cooling degree days 300 288  
Growing Degree Days 16 (Base 50)    
Moisture  
Dew Point 62 °F    
Average Humidity 80    
Maximum Humidity 87    
Minimum Humidity 72    
Precipitation  
Precipitation 1.78 in 0.34 in 5.31 in (1969)
Month to date precipitation 7.23 5.03  
Year to date precipitation 15.61 14.29  
Snow  
Snow 0.00 in - - ()
Month to date snowfall 0.0  
Since 1 July snowfall 0.0  
Snow Depth 0.00 in    
Sea Level Pressure  
Sea Level Pressure 30.09 in    
Wind  
Wind Speed 6 mph (WSW)    
Max Wind Speed 15 mph    
Max Gust Speed 25 mph    
Visibility 7 miles    
Events Rain    
T = Trace of Precipitation, MM = Missing Value Source: NWS Daily Summary

Daily Weather History Graph

Daily Weather History Graph

Search for Another Location

Airport or City:

Trip Planner

Search our weather history database for the weather conditions in past years. The results will help you decide how hot, cold, wet, or windy it might be!

Date:

Astronomy

Feb. 15, 2013 Rise Set
Actual Time 6:48 AM HST 6:20 PM HST
Civil Twilight 6:26 AM HST 6:42 PM HST
Nautical Twilight 6:00 AM HST 7:08 PM HST
Astronomical Twilight 5:34 AM HST 7:34 PM HST
Moon 10:24 AM HST (2/15) 11:34 PM HST (2/15)
Length of Visible Light 12h 16m
Length of Day
11h 31m
Waxing Crescent, 32% of the Moon is Illuminated
Feb 15
Waxing Crescent
Feb 17
First Quarter
Feb 25
Full
Mar 4
Last Quarter
Mar 11
New

Hourly Weather History & Observations

Time (HST) Temp. Dew Point Humidity Pressure Visibility Wind Dir Wind Speed Gust Speed Precip Events Conditions
12:53 AM 64.0 °F 55.9 °F 75% 30.08 in 10.0 mi SW 5.8 mph - N/A   Overcast
1:53 AM 62.1 °F 55.0 °F 78% 30.06 in 10.0 mi WSW 6.9 mph - N/A   Clear
2:53 AM 61.0 °F 55.0 °F 81% 30.04 in 10.0 mi WSW 5.8 mph - N/A   Partly Cloudy
3:53 AM 61.0 °F 54.0 °F 78% 30.04 in 10.0 mi WSW 6.9 mph - N/A   Partly Cloudy
4:53 AM 60.1 °F 52.0 °F 75% 30.04 in 10.0 mi SW 8.1 mph - N/A   Clear
5:53 AM 61.0 °F 52.0 °F 72% 30.05 in 10.0 mi WSW 9.2 mph - N/A   Mostly Cloudy
6:53 AM 62.1 °F 53.1 °F 72% 30.08 in 10.0 mi SW 5.8 mph - N/A   Mostly Cloudy
7:53 AM 64.0 °F 55.0 °F 73% 30.09 in 9.0 mi SW 6.9 mph - 0.00 in Rain Light Rain
8:07 AM 62.1 °F 57.0 °F 84% 30.12 in 2.5 mi East 5.8 mph - 0.00 in Rain Heavy Rain
8:14 AM 62.1 °F 57.9 °F 86% 30.11 in 2.0 mi SE 4.6 mph - 0.04 in Rain Heavy Rain
8:25 AM 63.0 °F 59.0 °F 87% 30.11 in 6.0 mi West 5.8 mph - 0.07 in Rain Light Rain
8:48 AM 64.4 °F 60.8 °F 88% 30.12 in 1.8 mi SW 3.5 mph - 0.07 in Rain Heavy Rain
8:53 AM 64.0 °F 61.0 °F 90% 30.12 in 1.0 mi WSW 5.8 mph - 0.11 in Rain Heavy Rain
9:11 AM 64.9 °F 62.1 °F 90% 30.12 in 6.0 mi West 12.7 mph - 0.14 in   Overcast
9:25 AM 66.9 °F 64.0 °F 90% 30.12 in 10.0 mi West 5.8 mph - 0.15 in Rain Light Rain
9:45 AM 68.0 °F 64.9 °F 90% 30.12 in 7.0 mi Variable 3.5 mph - 0.15 in Rain Light Rain
9:53 AM 68.0 °F 64.9 °F 90% 30.12 in 8.0 mi Calm Calm - 0.15 in Rain Light Rain
10:13 AM 69.1 °F 64.0 °F 84% 30.12 in 4.0 mi Variable 5.8 mph - 0.00 in Rain Rain
10:53 AM 72.0 °F 64.9 °F 78% 30.10 in 10.0 mi West 9.2 mph - 0.02 in   Overcast
11:05 AM 71.1 °F 64.0 °F 78% 30.11 in 1.8 mi West 4.6 mph - 0.00 in Rain Heavy Rain
11:31 AM 69.1 °F 66.0 °F 90% 30.11 in 4.0 mi Variable 4.6 mph - 0.30 in Rain Rain
11:49 AM 68.0 °F 64.4 °F 88% 30.10 in 2.5 mi Variable 5.8 mph - 0.35 in Rain Rain
11:53 AM 69.1 °F 64.0 °F 84% 30.10 in 2.5 mi Calm Calm - 0.36 in Rain Rain
12:12 PM 69.1 °F 64.0 °F 84% 30.10 in 3.0 mi Variable 4.6 mph - 0.02 in Rain Rain
12:53 PM 70.0 °F 64.9 °F 84% 30.07 in 10.0 mi West 9.2 mph - 0.09 in Rain Light Rain
1:03 PM 69.1 °F 64.9 °F 87% 30.08 in 2.5 mi NNE 6.9 mph - 0.01 in Rain Heavy Rain
1:10 PM 70.0 °F 66.0 °F 87% 30.07 in 4.0 mi NW 8.1 mph - 0.07 in Rain Rain
1:21 PM 70.0 °F 64.9 °F 84% 30.07 in 9.0 mi North 8.1 mph - 0.08 in Rain Light Rain
1:53 PM 70.0 °F 64.9 °F 84% 30.06 in 10.0 mi WNW 8.1 mph - 0.15 in Rain Light Rain
2:29 PM 69.1 °F 64.9 °F 87% 30.05 in 2.5 mi WNW 9.2 mph - 0.00 in Rain Heavy Rain
2:37 PM 69.1 °F 64.9 °F 87% 30.05 in 7.0 mi West 6.9 mph - 0.08 in Rain Heavy Rain
2:49 PM 69.8 °F 64.4 °F 83% 30.05 in 10.0 mi NNW 9.2 mph - 0.12 in Rain Light Rain
2:53 PM 69.1 °F 64.9 °F 87% 30.05 in 2.0 mi West 6.9 mph - 0.13 in Rain Heavy Rain
2:58 PM 70.0 °F 64.9 °F 84% 30.05 in 7.0 mi WSW 9.2 mph - 0.07 in Rain Light Rain
3:29 PM 69.1 °F 64.9 °F 87% 30.05 in 1.5 mi West 10.4 mph - 0.08 in Rain Rain
3:39 PM 71.1 °F 64.9 °F 81% 30.05 in 8.0 mi South 4.6 mph 25.3 mph 0.23 in Rain Light Rain
3:53 PM 71.1 °F 64.9 °F 81% 30.05 in 10.0 mi SSW 4.6 mph - 0.23 in   Overcast
4:22 PM 70.0 °F 64.0 °F 81% 30.06 in 10.0 mi West 8.1 mph - N/A   Overcast
4:53 PM 69.1 °F 63.0 °F 81% 30.06 in 10.0 mi West 10.4 mph - 0.11 in   Overcast
5:12 PM 69.1 °F 63.0 °F 81% 30.07 in 6.0 mi WNW 8.1 mph - 0.09 in Rain Rain
5:53 PM 68.0 °F 63.0 °F 84% 30.08 in 10.0 mi SW 8.1 mph - 0.16 in Rain Light Rain
6:53 PM 66.9 °F 62.1 °F 84% 30.09 in 8.0 mi WSW 5.8 mph - 0.08 in Rain Light Rain
7:53 PM 66.0 °F 63.0 °F 90% 30.11 in 9.0 mi SW 3.5 mph - 0.07 in Rain Light Rain
8:53 PM 66.0 °F 62.1 °F 87% 30.12 in 10.0 mi WSW 5.8 mph - 0.01 in Rain Light Rain
9:08 PM 66.0 °F 62.1 °F 87% 30.13 in 10.0 mi SW 5.8 mph - 0.01 in Rain Light Rain
9:53 PM 66.0 °F 62.1 °F 87% 30.13 in 10.0 mi WSW 8.1 mph - 0.03 in   Overcast
10:53 PM 66.0 °F 63.0 °F 90% 30.13 in 10.0 mi SW 5.8 mph - 0.06 in Rain Light Rain
11:53 PM 66.0 °F 63.0 °F 90% 30.13 in 10.0 mi SW 4.6 mph - 0.02 in   Overcast